TimeCDT,TemperatureF,Dew PointF,Humidity,Sea Level PressureIn,VisibilityMPH,Wind Direction,Wind SpeedMPH,Gust SpeedMPH,PrecipitationIn,Events,Conditions,WindDirDegrees,DateUTC
12:53 AM,71.1,61.0,70,29.77,10.0,North,10.4,-,N/A,,Overcast,350,2013-07-23 05:53:00
1:53 AM,69.1,59.0,70,29.78,10.0,NNW,9.2,-,N/A,,Overcast,340,2013-07-23 06:53:00
2:53 AM,66.9,59.0,76,29.78,10.0,North,6.9,-,N/A,,Overcast,350,2013-07-23 07:53:00
3:53 AM,66.0,57.9,75,29.80,10.0,NNW,9.2,-,N/A,,Clear,330,2013-07-23 08:53:00
4:53 AM,63.0,57.0,81,29.81,10.0,North,4.6,-,N/A,,Clear,360,2013-07-23 09:53:00
5:53 AM,63.0,57.0,81,29.84,10.0,NNW,8.1,-,N/A,,Clear,340,2013-07-23 10:53:00
6:53 AM,64.0,55.9,75,29.86,10.0,NNW,8.1,-,N/A,,Clear,340,2013-07-23 11:53:00
7:53 AM,66.0,55.0,68,29.87,10.0,NNW,8.1,-,N/A,,Clear,340,2013-07-23 12:53:00
8:53 AM,69.1,55.0,61,29.89,10.0,North,11.5,-,N/A,,Clear,350,2013-07-23 13:53:00
9:53 AM,70.0,54.0,57,29.90,10.0,NNW,13.8,-,N/A,,Clear,340,2013-07-23 14:53:00
10:53 AM,72.0,52.0,49,29.91,10.0,North,12.7,-,N/A,,Clear,360,2013-07-23 15:53:00
11:53 AM,72.0,52.0,49,29.92,10.0,North,11.5,-,N/A,,Mostly Cloudy,350,2013-07-23 16:53:00
12:53 PM,73.9,52.0,46,29.94,10.0,North,8.1,-,N/A,,Partly Cloudy,10,2013-07-23 17:53:00
1:53 PM,75.0,51.1,43,29.94,10.0,North,8.1,-,N/A,,Scattered Clouds,350,2013-07-23 18:53:00
2:53 PM,75.9,52.0,43,29.94,10.0,North,11.5,18.4,N/A,,Partly Cloudy,350,2013-07-23 19:53:00
3:53 PM,75.0,51.1,43,29.94,10.0,North,11.5,-,N/A,,Clear,10,2013-07-23 20:53:00
4:53 PM,73.9,52.0,46,29.94,10.0,NNE,12.7,-,N/A,,Clear,20,2013-07-23 21:53:00
5:53 PM,73.9,51.1,45,29.94,10.0,NNE,11.5,17.3,N/A,,Clear,20,2013-07-23 22:53:00
6:53 PM,73.0,51.1,46,29.94,10.0,NNE,8.1,-,N/A,,Clear,20,2013-07-23 23:53:00
7:53 PM,71.1,52.0,51,29.95,10.0,North,5.8,-,N/A,,Clear,360,2013-07-24 00:53:00
8:53 PM,66.0,53.1,63,29.95,10.0,North,3.5,-,N/A,,Clear,350,2013-07-24 01:53:00
9:53 PM,64.0,55.0,73,29.98,10.0,Calm,Calm,-,N/A,,Clear,0,2013-07-24 02:53:00
10:53 PM,62.1,55.9,80,29.99,10.0,North,3.5,-,N/A,,Clear,360,2013-07-24 03:53:00
11:53 PM,61.0,55.9,83,30.00,10.0,Calm,Calm,-,N/A,,Clear,0,2013-07-24 04:53:00